When you browse on this site, cookies collect data to enhance your experience and personalize the content and advertising you see.
Visit our Privacy Policy to learn more. By continuing to use the site, you agree to this use of cookies and data.
  • In Switzerland
  • List of Countries
  • For 7 days
  • Water Temperature
  • Weather Map
  • Weather Widgets
  • user-avatar
    Login

    Hourly Weather Wilmington

    Today, 25 January, Saturday

    Time Temperature Precipitation Wind Pressure Humidity
    00:00 +5°C° 0 mm 5 mps 764 mmHg 88%
    01:00 +5°C° 0 mm 5 mps 764 mmHg 82%
    02:00 +4°C° 0 mm 6 mps 763 mmHg 85%
    03:00 +5°C° 0 mm 6 mps 762 mmHg 88%
    04:00 +7°C° 0 mm 6 mps 762 mmHg 91%
    05:00 +8°C° 0.7 mm 7 mps 761 mmHg 91%
    06:00 +9°C° 0.7 mm 8 mps 760 mmHg 91%
    07:00 +8°C° 0.7 mm 9 mps 759 mmHg 92%
    08:00 +9°C° 8.8 mm 6 mps 758 mmHg 94%
    09:00 +10°C° 8.8 mm 4 mps 758 mmHg 96%
    10:00 +11°C° 8.8 mm 1 mps 757 mmHg 97%
    11:00 +10°C° 4.9 mm 2 mps 757 mmHg 95%
    12:00 +12°C° 4.9 mm 2 mps 756 mmHg 93%
    13:00 +12°C° 4.9 mm 2 mps 756 mmHg 90%
    14:00 +12°C° 0.1 mm 2 mps 756 mmHg 89%
    15:00 +11°C° 0.1 mm 3 mps 756 mmHg 87%
    16:00 +10°C° 0.1 mm 3 mps 756 mmHg 85%
    17:00 +9°C° 0 mm 3 mps 756 mmHg 85%
    18:00 +7°C° 0 mm 4 mps 757 mmHg 84%
    19:00 +6°C° 0 mm 4 mps 757 mmHg 83%
    20:00 +5°C° 0 mm 4 mps 757 mmHg 83%
    21:00 +5°C° 0 mm 3 mps 758 mmHg 83%
    22:00 +4°C° 0 mm 3 mps 758 mmHg 82%
    23:00 +4°C° 0 mm 3 mps 758 mmHg 82%

    Tomorrow, 26 January, Sunday

    Time Temperature Precipitation Wind Pressure Humidity
    00:00 +3°C° 0 mm 3 mps 758 mmHg 82%
    01:00 +3°C° 0 mm 3 mps 758 mmHg 81%
    02:00 +2°C° 0 mm 3 mps 758 mmHg 81%
    03:00 +2°C° 0 mm 3 mps 758 mmHg 81%
    04:00 +1°C° 0 mm 3 mps 758 mmHg 82%
    05:00 +1°C° 0 mm 3 mps 758 mmHg 82%
    06:00 +1°C° 0 mm 3 mps 758 mmHg 82%
    07:00 +1°C° 0 mm 3 mps 758 mmHg 82%
    08:00 +2°C° 0 mm 3 mps 758 mmHg 76%
    09:00 +3°C° 0 mm 4 mps 758 mmHg 71%
    10:00 +3°C° 0 mm 5 mps 758 mmHg 66%
    11:00 +5°C° 0 mm 4 mps 758 mmHg 63%
    12:00 +5°C° 0 mm 4 mps 758 mmHg 61%
    13:00 +6°C° 0 mm 4 mps 758 mmHg 58%
    14:00 +6°C° 0 mm 4 mps 757 mmHg 59%
    15:00 +5°C° 0 mm 4 mps 757 mmHg 60%
    16:00 +5°C° 0 mm 4 mps 757 mmHg 61%
    17:00 +5°C° 0 mm 4 mps 757 mmHg 62%
    18:00 +4°C° 0 mm 4 mps 757 mmHg 63%
    19:00 +4°C° 0 mm 3 mps 758 mmHg 65%
    20:00 +3°C° 0 mm 3 mps 757 mmHg 66%
    21:00 +3°C° 0 mm 3 mps 757 mmHg 67%
    22:00 +3°C° 0 mm 2 mps 757 mmHg 69%
    23:00 +2°C° 0 mm 3 mps 757 mmHg 71%

    Day after tomorrow, 27 January, Monday

    Time Temperature Precipitation Wind Pressure Humidity
    00:00 +1°C° 0 mm 3 mps 757 mmHg 73%
    01:00 +1°C° 0 mm 3 mps 757 mmHg 75%
    02:00 +1°C° 0 mm 3 mps 757 mmHg 76%
    03:00 0°C° 0 mm 3 mps 756 mmHg 77%
    04:00 0°C° 0 mm 3 mps 756 mmHg 78%
    05:00 0°C° 0 mm 3 mps 756 mmHg 77%
    06:00 0°C° 0 mm 3 mps 756 mmHg 77%
    07:00 0°C° 0 mm 3 mps 756 mmHg 76%
    08:00 0°C° 0 mm 4 mps 756 mmHg 73%
    09:00 +1°C° 0 mm 4 mps 756 mmHg 69%
    10:00 +3°C° 0 mm 4 mps 756 mmHg 66%
    11:00 +4°C° 0 mm 4 mps 756 mmHg 62%
    12:00 +5°C° 0 mm 5 mps 755 mmHg 58%
    13:00 +6°C° 0 mm 5 mps 755 mmHg 55%
    14:00 +6°C° 0 mm 5 mps 755 mmHg 56%
    15:00 +5°C° 0 mm 4 mps 755 mmHg 57%
    16:00 +5°C° 0 mm 4 mps 754 mmHg 59%
    17:00 +4°C° 0 mm 4 mps 755 mmHg 62%
    18:00 +3°C° 0 mm 4 mps 755 mmHg 64%
    19:00 +1°C° 0 mm 4 mps 756 mmHg 67%
    20:00 +1°C° 0 mm 4 mps 756 mmHg 70%
    21:00 +1°C° 0 mm 4 mps 756 mmHg 72%
    22:00 +1°C° 0 mm 3 mps 756 mmHg 75%
    23:00 0°C° 0 mm 4 mps 756 mmHg 75%

    28 January, Tuesday

    Time Temperature Precipitation Wind Pressure Humidity
    00:00 0°C° 0 mm 4 mps 756 mmHg 75%
    01:00 -1°C° 0 mm 4 mps 756 mmHg 76%
    02:00 -1°C° 0 mm 4 mps 756 mmHg 76%
    03:00 -1°C° 0 mm 4 mps 756 mmHg 76%
    04:00 -1°C° 0 mm 4 mps 756 mmHg 77%
    05:00 -1°C° 0 mm 4 mps 756 mmHg 78%
    06:00 0°C° 0 mm 3 mps 757 mmHg 79%
    07:00 0°C° 0 mm 3 mps 757 mmHg 80%
    08:00 0°C° 0 mm 4 mps 757 mmHg 74%
    09:00 +1°C° 0 mm 4 mps 758 mmHg 68%
    10:00 +2°C° 0 mm 5 mps 758 mmHg 63%
    11:00 +3°C° 0 mm 5 mps 758 mmHg 60%
    12:00 +5°C° 0 mm 5 mps 757 mmHg 58%
    13:00 +5°C° 0 mm 5 mps 757 mmHg 55%
    14:00 +5°C° 0 mm 5 mps 757 mmHg 57%
    15:00 +3°C° 0 mm 5 mps 757 mmHg 58%
    16:00 +3°C° 0 mm 5 mps 757 mmHg 60%
    17:00 +3°C° 0 mm 5 mps 758 mmHg 62%
    18:00 +3°C° 0 mm 4 mps 758 mmHg 65%
    19:00 +1°C° 0 mm 4 mps 759 mmHg 68%
    20:00 +1°C° 0 mm 4 mps 759 mmHg 69%
    21:00 +2°C° 0 mm 3 mps 759 mmHg 70%
    22:00 +1°C° 0 mm 3 mps 760 mmHg 72%
    23:00 0°C° 0 mm 4 mps 760 mmHg 72%

    29 January, Wednesday

    Time Temperature Precipitation Wind Pressure Humidity
    00:00 -1°C° 0 mm 4 mps 760 mmHg 72%
    01:00 -2°C° 0 mm 4 mps 760 mmHg 72%
    02:00 -2°C° 0 mm 4 mps 760 mmHg 72%
    03:00 -2°C° 0 mm 4 mps 760 mmHg 73%
    04:00 -3°C° 0 mm 4 mps 760 mmHg 73%
    05:00 -2°C° 0 mm 3 mps 761 mmHg 71%
    06:00 -2°C° 0 mm 3 mps 761 mmHg 70%
    07:00 -2°C° 0 mm 3 mps 761 mmHg 68%
    08:00 -2°C° 0 mm 3 mps 761 mmHg 63%
    09:00 -1°C° 0 mm 3 mps 762 mmHg 58%
    10:00 0°C° 0 mm 3 mps 762 mmHg 53%
    11:00 0°C° 0 mm 4 mps 762 mmHg 49%
    12:00 +1°C° 0 mm 4 mps 761 mmHg 46%
    13:00 +3°C° 0 mm 4 mps 761 mmHg 43%
    14:00 +3°C° 0 mm 3 mps 761 mmHg 43%
    15:00 +3°C° 0 mm 3 mps 761 mmHg 44%
    16:00 +3°C° 0 mm 3 mps 760 mmHg 44%
    17:00 +2°C° 0 mm 3 mps 761 mmHg 47%
    18:00 +1°C° 0 mm 3 mps 761 mmHg 50%
    19:00 +1°C° 0 mm 3 mps 762 mmHg 53%
    20:00 0°C° 0 mm 3 mps 762 mmHg 54%
    21:00 -1°C° 0 mm 3 mps 763 mmHg 55%
    22:00 -1°C° 0 mm 3 mps 763 mmHg 56%
    23:00 -2°C° 0 mm 3 mps 763 mmHg 57%

    30 January, Thursday

    Time Temperature Precipitation Wind Pressure Humidity
    00:00 -2°C° 0 mm 3 mps 763 mmHg 57%
    01:00 -4°C° 0 mm 3 mps 763 mmHg 58%
    02:00 -4°C° 0 mm 3 mps 763 mmHg 57%
    03:00 -3°C° 0 mm 2 mps 764 mmHg 56%
    04:00 -3°C° 0 mm 2 mps 764 mmHg 56%
    05:00 -3°C° 0 mm 2 mps 764 mmHg 55%
    06:00 -3°C° 0 mm 2 mps 764 mmHg 55%
    07:00 -3°C° 0 mm 2 mps 765 mmHg 55%
    08:00 -2°C° 0 mm 2 mps 765 mmHg 52%
    09:00 -2°C° 0 mm 2 mps 766 mmHg 48%
    10:00 -1°C° 0 mm 2 mps 767 mmHg 45%
    11:00 +1°C° 0 mm 2 mps 767 mmHg 42%
    12:00 +2°C° 0 mm 2 mps 767 mmHg 39%
    13:00 +3°C° 0 mm 2 mps 767 mmHg 36%
    14:00 +3°C° 0 mm 2 mps 767 mmHg 36%
    15:00 +3°C° 0 mm 2 mps 767 mmHg 36%
    16:00 +3°C° 0 mm 2 mps 767 mmHg 35%
    17:00 +2°C° 0 mm 2 mps 768 mmHg 39%
    18:00 +2°C° 0 mm 1 mps 768 mmHg 42%
    19:00 +1°C° 0 mm 1 mps 769 mmHg 45%
    20:00 +1°C° 0 mm 1 mps 769 mmHg 46%
    21:00 0°C° 0 mm 1 mps 770 mmHg 47%
    22:00 0°C° 0 mm 1 mps 770 mmHg 48%
    23:00 0°C° 0 mm 1 mps 770 mmHg 48%
    Show more